[[{"header":{"parameterUnit":"m.s-1","parameterCategory":1,"la1":30.2991,"la2":30.254,"lo1":-89.0895,"lo2":-89.0444,"dy":0.0017,"dx":0.0017,"nx":28,"ny":28,"refTime":"2023-09-15T21:00:00:Z","depth":0,"parameterNumber":2,"parameterNumberName":"U-component_of_WINDS"},"data":[0,0,0,0,0,0,0,0,0,0,0,0,0,0,0,0,0,0,0,0,0,0,0,0,0,0,0,0,0,0,0,0,0,0,0,0,0,0,0,0,0,0,0,0,0,0,0,0,0,0,0,0,0,0,0,0,0,0,-1.2195,-1.2195,0,-1.2173,-1.2173,-1.2173,-1.2166,-1.2166,-1.2166,-1.2167,-1.2141,-1.214,-1.214,0,0,0,0,0,0,0,0,0,0,0,0,0,-1.2227,-1.2227,-1.2195,-1.2195,-1.2194,-1.2173,-1.2173,-1.2173,-1.2166,-1.2166,-1.2166,-1.2167,-1.2141,-1.214,-1.2139,0,0,0,0,0,0,0,0,0,0,0,0,0,-1.221,-1.2226,-1.2195,-1.2189,-1.2188,-1.2173,-1.2173,-1.2173,-1.2166,-1.2166,-1.2166,-1.2167,-1.2142,-1.214,-1.2139,-1.2129,0,0,-1.2136,-1.2135,0,0,0,0,0,0,0,0,-1.2211,-1.2209,-1.219,-1.2189,-1.2188,-1.2173,-1.2175,-1.2158,-1.2166,-1.2174,-1.2167,-1.2167,-1.2151,-1.2149,-1.2145,-1.2128,-1.2126,-1.2136,-1.2135,-1.2134,-1.2134,0,0,0,0,0,0,0,-1.2212,-1.221,-1.2186,-1.2189,-1.2188,-1.2186,-1.2184,-1.2172,-1.2162,-1.2174,-1.2173,-1.2171,-1.2151,-1.2146,-1.2144,-1.2126,-1.2136,-1.2135,-1.2134,-1.2133,-1.2099,-1.2099,0,0,0,0,0,0,-1.2215,-1.2211,-1.2187,-1.2186,-1.22,-1.2185,-1.2183,-1.2177,-1.2162,-1.216,-1.2171,-1.2171,-1.2148,-1.2145,-1.2143,-1.213,-1.2134,-1.2133,-1.2133,-1.2099,-1.2099,-1.2099,0,0,0,0,0,0,-1.2216,-1.2213,-1.2188,-1.2198,-1.2195,-1.2184,-1.2179,-1.2177,-1.2172,-1.216,-1.2158,-1.2168,-1.2148,-1.2145,-1.2133,-1.2129,-1.2133,-1.2132,-1.2099,-1.2099,-1.2099,-1.2103,0,0,0,0,0,0,-1.2217,-1.2213,-1.221,-1.2198,-1.2194,-1.2178,-1.2178,-1.2176,-1.217,-1.217,-1.2157,-1.2154,-1.2148,-1.2134,-1.2131,-1.2127,-1.2131,-1.21,-1.2099,-1.2099,-1.2103,-1.2102,-1.2102,0,0,0,0,0,-1.2218,-1.2211,-1.221,-1.2207,-1.219,-1.2178,-1.2176,-1.2169,-1.217,-1.2166,-1.2158,-1.2155,-1.213,-1.2133,-1.213,-1.2125,-1.21,-1.2099,-1.2099,-1.2103,-1.2102,-1.2102,0,0,0,0,0,0,-1.2221,-1.2209,-1.2208,-1.2197,-1.2189,-1.2177,-1.2172,-1.2169,-1.216,-1.216,-1.2151,-1.2148,-1.2136,-1.2129,-1.2133,-1.2114,-1.2115,-1.2113,-1.2119,-1.2118,-1.2118,-1.212,-1.213,0,0,0,0,0,-1.2221,-1.2213,-1.2203,-1.2194,-1.2191,-1.2182,-1.2177,-1.2173,-1.2163,-1.2159,-1.2151,-1.2141,-1.2131,-1.2124,-1.2114,-1.2102,-1.2099,-1.2097,-1.2097,-1.2097,-1.2095,-1.2088,-1.2087,-1.2097,-1.2097,-1.2097,0,0,-1.2219,-1.2212,-1.2208,-1.2195,-1.2188,-1.218,-1.2179,-1.217,-1.2164,-1.2158,-1.2146,-1.2139,-1.2128,-1.2115,-1.2109,-1.2109,-1.2092,-1.2096,-1.2096,-1.2095,-1.2087,-1.2087,-1.2086,-1.2097,-1.2097,-1.2097,0,0,-1.2213,-1.2207,-1.2199,-1.2193,-1.2183,-1.2177,-1.2176,-1.2165,-1.216,-1.2149,-1.2144,-1.2136,-1.2119,-1.2111,-1.2104,-1.2096,-1.2092,-1.2092,-1.2091,-1.2084,-1.2083,-1.2082,-1.2079,-1.2077,-1.2091,-1.2091,-1.2091,0,-1.2212,-1.22,-1.2195,-1.2187,-1.2181,-1.2177,-1.2169,-1.2162,-1.2149,-1.2145,-1.2145,-1.2124,-1.2116,-1.2102,-1.21,-1.2095,-1.2092,-1.2094,-1.2084,-1.2083,-1.2082,-1.2078,-1.2077,-1.2092,-1.2092,-1.2092,-1.2092,0,-1.22,-1.2192,-1.2187,-1.2176,-1.2169,-1.2161,-1.2154,-1.2148,-1.2144,-1.2139,-1.2127,-1.2117,-1.2105,-1.2101,-1.2097,-1.2086,-1.2087,-1.2086,-1.2086,-1.2081,-1.2078,-1.2076,-1.2092,-1.2092,-1.2092,-1.2092,0,0,-1.2194,-1.2181,-1.2179,-1.2174,-1.2163,-1.2156,-1.2148,-1.2137,-1.2132,-1.2123,-1.2115,-1.2102,-1.2101,-1.2093,-1.2089,-1.2083,-1.2076,-1.2082,-1.2082,-1.2081,-1.2063,-1.2063,-1.2062,-1.2074,-1.2073,-1.2073,-1.2064,0,-1.2185,-1.2171,-1.2166,-1.2154,-1.2146,-1.2142,-1.2134,-1.2127,-1.2121,-1.2113,-1.2106,-1.2096,-1.2096,-1.2092,-1.2086,-1.2078,-1.2072,-1.2079,-1.2065,-1.2065,-1.2068,-1.206,-1.2061,-1.2052,-1.2062,-1.2062,-1.2062,0,-1.2173,-1.2166,-1.2153,-1.2144,-1.214,-1.2134,-1.2124,-1.2117,-1.2107,-1.2104,-1.2096,-1.2092,-1.2082,-1.2084,-1.2069,-1.2074,-1.2068,-1.2063,-1.2063,-1.2061,-1.2063,-1.2057,-1.2049,-1.2048,-1.206,-1.206,-1.206,0,-1.217,-1.2156,-1.2147,-1.2143,-1.2132,-1.2127,-1.2122,-1.2113,-1.2108,-1.2099,-1.2095,-1.2084,-1.2078,-1.207,-1.2063,-1.2065,-1.2049,-1.205,-1.2045,-1.2045,-1.2041,-1.2041,-1.2031,-1.2038,-1.2038,-1.2038,-1.2038,0,-1.216,-1.2152,-1.2145,-1.2139,-1.213,-1.2125,-1.2116,-1.211,-1.2103,-1.2095,-1.2091,-1.2083,-1.2075,-1.2066,-1.206,-1.2049,-1.2046,-1.2042,-1.2041,-1.2042,-1.2043,-1.2038,-1.2038,-1.2038,-1.2038,-1.2038,-1.2038,0,-1.2154,-1.2149,-1.2139,-1.213,-1.2127,-1.2121,-1.2113,-1.2106,-1.2101,-1.2091,-1.2089,-1.208,-1.207,-1.2062,-1.2048,-1.2044,-1.2032,-1.2031,-1.2035,-1.2034,-1.203,-1.203,-1.2015,-1.2013,-1.2022,-1.2022,-1.2022,0,-1.2148,-1.2142,-1.2133,-1.2128,-1.2124,-1.2116,-1.211,-1.2105,-1.2099,-1.2089,-1.2083,-1.2073,-1.2064,-1.2048,-1.204,-1.2029,-1.2027,-1.2023,-1.2025,-1.2027,-1.2026,-1.2026,-1.2025,-1.2022,-1.2022,-1.2022,-1.2022,0,-1.2138,-1.2136,-1.2129,-1.2121,-1.2115,-1.2108,-1.2101,-1.2097,-1.209,-1.2083,-1.2074,-1.2067,-1.2054,-1.2043,-1.2032,-1.2025,-1.2022,-1.2021,-1.2019,-1.202,-1.2023,-1.2021,-1.2034,-1.2021,-1.2021,-1.2021,-1.2021,-1.2021,-1.2131,-1.2126,-1.2119,-1.2111,-1.2106,-1.2099,-1.2093,-1.2088,-1.208,-1.2069,-1.2066,-1.2056,-1.2047,-1.2032,-1.2025,-1.2016,-1.2016,-1.2014,-1.2013,-1.2012,-1.2012,-1.2026,-1.2014,-1.2014,-1.2014,-1.2014,-1.2014,0,-1.2121,-1.2116,-1.2109,-1.21,-1.2094,-1.2093,-1.2085,-1.208,-1.2071,-1.2063,-1.2056,-1.2044,-1.2034,-1.2026,-1.2015,-1.2009,-1.2007,-1.2007,-1.2006,-1.2005,-1.2013,-1.2015,-1.2008,-1.2008,-1.2008,-1.2008,-1.2008,-1.2008,-1.2114,-1.2105,-1.2102,-1.209,-1.2085,-1.2076,-1.2072,-1.2066,-1.206,-1.2048,-1.204,-1.2035,-1.2027,-1.2016,-1.2006,-1.2004,-1.2,-1.1999,-1.1997,-1.2004,-1.2004,-1.2005,-1.2007,-1.1999,-1.1999,-1.1989,-1.1989,-1.1989]},{"header":{"parameterUnit":"m.s-1","parameterCategory":1,"la1":30.2991,"la2":30.254,"lo1":-89.0895,"lo2":-89.0444,"dy":0.0017,"dx":0.0017,"nx":28,"ny":28,"refTime":"2023-09-15T21:00:00:Z","depth":0,"parameterNumber":3,"parameterNumberName":"V-component_of_WINDS"},"data":[0,0,0,0,0,0,0,0,0,0,0,0,0,0,0,0,0,0,0,0,0,0,0,0,0,0,0,0,0,0,0,0,0,0,0,0,0,0,0,0,0,0,0,0,0,0,0,0,0,0,0,0,0,0,0,0,0,0,0.2822,0.2821,0,0.265,0.2648,0.2646,0.2569,0.2569,0.2569,0.257,0.2396,0.2391,0.2386,0,0,0,0,0,0,0,0,0,0,0,0,0,0.3091,0.3087,0.2823,0.282,0.2818,0.265,0.2647,0.2645,0.2569,0.2569,0.257,0.257,0.2397,0.2391,0.2386,0,0,0,0,0,0,0,0,0,0,0,0,0,0.2952,0.3085,0.2823,0.276,0.2753,0.265,0.2647,0.2644,0.2569,0.2569,0.257,0.257,0.2399,0.2392,0.2385,0.2333,0,0,0.2363,0.2359,0,0,0,0,0,0,0,0,0.296,0.2942,0.2771,0.2764,0.2756,0.2631,0.2678,0.254,0.2569,0.2639,0.257,0.257,0.2474,0.246,0.2427,0.2325,0.2318,0.2362,0.2358,0.2354,0.2352,0,0,0,0,0,0,0,0.297,0.2949,0.2754,0.2769,0.2759,0.2742,0.2722,0.2652,0.2557,0.2633,0.2627,0.2607,0.247,0.2435,0.2423,0.2315,0.2362,0.2356,0.2351,0.2348,0.2164,0.2163,0,0,0,0,0,0,0.2989,0.2958,0.276,0.2749,0.2861,0.2737,0.2715,0.2671,0.2557,0.254,0.2607,0.2604,0.2447,0.2431,0.2416,0.2349,0.2354,0.2348,0.2344,0.2164,0.2164,0.2163,0,0,0,0,0,0,0.2995,0.2972,0.2767,0.2852,0.2824,0.2732,0.2683,0.2667,0.2632,0.2538,0.2521,0.2588,0.2446,0.2427,0.2355,0.2342,0.2344,0.2338,0.2165,0.2164,0.2163,0.2214,0,0,0,0,0,0,0.3003,0.2975,0.2953,0.2852,0.282,0.2707,0.2682,0.2664,0.2619,0.2614,0.2516,0.25,0.2445,0.2366,0.2347,0.2332,0.2332,0.2166,0.2165,0.2164,0.2213,0.2215,0.2216,0,0,0,0,0,0.3013,0.2975,0.2952,0.2929,0.2791,0.2706,0.2688,0.2625,0.2619,0.2597,0.2537,0.2503,0.2347,0.2359,0.2338,0.232,0.2166,0.2165,0.2164,0.2212,0.2214,0.2216,0,0,0,0,0,0,0.3077,0.296,0.2934,0.2861,0.2794,0.2693,0.2663,0.2629,0.2563,0.2561,0.2487,0.2466,0.24,0.2353,0.2369,0.2265,0.2254,0.2248,0.2298,0.2299,0.2301,0.2313,0.2326,0,0,0,0,0,0.3083,0.3023,0.2924,0.2869,0.2837,0.2757,0.2717,0.2675,0.2602,0.2574,0.2508,0.2441,0.2376,0.2335,0.2271,0.2206,0.2184,0.2184,0.2186,0.2188,0.2183,0.2147,0.2146,0.2159,0.2159,0.2159,0,0,0.3094,0.3022,0.2989,0.2881,0.2823,0.2764,0.2733,0.2671,0.2627,0.2565,0.2492,0.2443,0.2362,0.2294,0.2261,0.2253,0.2175,0.2186,0.2188,0.2183,0.2146,0.2144,0.2143,0.2158,0.2158,0.2159,0,0,0.3083,0.3023,0.2971,0.2915,0.2828,0.2775,0.2764,0.2668,0.2632,0.2558,0.2511,0.2459,0.2349,0.2294,0.2252,0.2223,0.219,0.2205,0.2214,0.2179,0.2178,0.2177,0.2167,0.2164,0.2201,0.2201,0.2201,0,0.3107,0.3014,0.2949,0.2889,0.2844,0.2785,0.2733,0.2682,0.258,0.2551,0.2543,0.2405,0.2347,0.2266,0.2259,0.2227,0.2212,0.2215,0.2183,0.2181,0.2179,0.2169,0.2166,0.2204,0.2203,0.2203,0.2203,0,0.3049,0.2986,0.2955,0.2857,0.2808,0.2753,0.268,0.2639,0.2602,0.2551,0.2478,0.2406,0.2327,0.2305,0.2268,0.2219,0.2217,0.2198,0.2184,0.2181,0.2171,0.2166,0.2207,0.2206,0.2205,0.2205,0,0,0.3071,0.2939,0.2929,0.2884,0.2786,0.2737,0.2681,0.2602,0.2569,0.2502,0.2453,0.2363,0.2345,0.2297,0.2254,0.2224,0.2207,0.2208,0.2205,0.221,0.2149,0.2164,0.216,0.2185,0.2184,0.2184,0.2156,0,0.3046,0.294,0.2881,0.28,0.2742,0.2687,0.2638,0.2574,0.2525,0.247,0.2416,0.2354,0.2335,0.2306,0.2273,0.2216,0.2194,0.2217,0.214,0.2138,0.216,0.2154,0.2169,0.2146,0.2151,0.2151,0.215,0,0.3002,0.2936,0.2849,0.2759,0.2733,0.2689,0.2614,0.2561,0.2489,0.2455,0.2404,0.2361,0.2301,0.2295,0.2212,0.2229,0.2195,0.2162,0.216,0.2149,0.2143,0.2143,0.2137,0.2134,0.2143,0.2143,0.2144,0,0.3027,0.2916,0.285,0.2814,0.2707,0.2678,0.2633,0.256,0.2518,0.2453,0.2425,0.2354,0.2315,0.2263,0.2203,0.2204,0.2127,0.2115,0.2098,0.21,0.2083,0.2085,0.2071,0.2063,0.2063,0.2063,0.2063,0,0.3005,0.2954,0.2859,0.2819,0.2761,0.2694,0.264,0.259,0.2527,0.2477,0.2426,0.2381,0.2305,0.2251,0.2205,0.2144,0.2127,0.2099,0.2087,0.2103,0.2107,0.2078,0.2078,0.2062,0.2062,0.2062,0.2062,0,0.3022,0.2956,0.288,0.2787,0.2762,0.2724,0.2644,0.2603,0.2553,0.2491,0.2473,0.2394,0.2328,0.2264,0.2176,0.2144,0.2084,0.2068,0.2108,0.2101,0.2088,0.209,0.2055,0.2047,0.2046,0.2046,0.2046,0,0.3011,0.2971,0.2873,0.2835,0.2791,0.2731,0.2688,0.2622,0.2579,0.2494,0.2464,0.2395,0.2335,0.2232,0.2168,0.2101,0.2083,0.2076,0.2073,0.209,0.2083,0.2085,0.2081,0.2077,0.2077,0.2078,0.2078,0,0.3,0.297,0.2908,0.2836,0.2785,0.2725,0.2664,0.2637,0.2559,0.2514,0.2445,0.2399,0.2309,0.2241,0.2167,0.2122,0.2088,0.208,0.2072,0.2087,0.2112,0.2098,0.2112,0.208,0.208,0.208,0.208,0.208,0.3002,0.2964,0.2889,0.2823,0.277,0.2714,0.2672,0.2617,0.2558,0.2478,0.2444,0.2375,0.2306,0.2202,0.2159,0.2105,0.2096,0.2086,0.2083,0.2081,0.2084,0.2122,0.2091,0.2091,0.2091,0.2091,0.2091,0,0.2987,0.2937,0.2877,0.2792,0.2741,0.2713,0.2644,0.2603,0.2543,0.2481,0.2423,0.2346,0.228,0.2212,0.2143,0.2113,0.2096,0.2097,0.2098,0.2089,0.2096,0.2109,0.2112,0.2112,0.2112,0.2112,0.2112,0.2112,0.2974,0.2908,0.287,0.2778,0.2729,0.266,0.2623,0.2572,0.2522,0.2437,0.2382,0.2338,0.2274,0.22,0.2139,0.2121,0.2098,0.2104,0.2082,0.2089,0.2088,0.2087,0.2098,0.21,0.21,0.2078,0.2078,0.2078]}]]